Printer-friendly version

IAU Minor Planet Center

Minor Planet Center

MPEC 2008-M47 : 2008 MG1

The following Minor Planet Electronic Circular may be linked-to from your own Web pages, but must not otherwise be redistributed electronically.


Read MPEC 2008-M46 Read MPEC 2008-M48


M.P.E.C. 2008-M47                                Issued 2008 June 30, 12:17 UT

     The Minor Planet Electronic Circulars contain information on unusual
         minor planets and routine data on comets.  They are published
   on behalf of Commission 20 of the International Astronomical Union by the
          Minor Planet Center, Smithsonian Astrophysical Observatory,
                          Cambridge, MA 02138, U.S.A.

             Prepared using the Tamkin Foundation Computer Network

                              MPC@CFA.HARVARD.EDU
          URL http://www.cfa.harvard.edu/iau/mpc.html  ISSN 1523-6714

                                   2008 MG1

Observations:
     K08M01G* C2008 06 27.71957 20 17 50.20 -37 34 56.4          19.1 V EM047E12
     K08M01G  C2008 06 27.73067 20 17 46.14 -37 35 14.0          19.6 V EM047E12
     K08M01G  C2008 06 27.74169 20 17 42.07 -37 35 31.7          19.8 V EM047E12
     K08M01G  C2008 06 27.75284 20 17 38.04 -37 35 51.9          19.1 V EM047E12
     K08M01G  C2008 06 28.48053 20 13 17.30 -37 55 38.7          19.6 R EM047E12
     K08M01G  C2008 06 28.48547 20 13 15.451-37 55 47.44         19.7 R EM047E12
     K08M01G  C2008 06 28.60224 20 12 30.18 -37 59 04.0          19.6 V EM047F85
     K08M01G  C2008 06 28.62487 20 12 21.67 -37 59 39.4          19.7 V EM047F85
     K08M01G  C2008 06 28.80168 20 11 16.23 -38 04 18.4          19.6 R EM047E12
     K08M01G  C2008 06 28.80479 20 11 15.04 -38 04 23.6          19.4 R EM047E12
     K08M01G  C2008 06 29.42101 20 07 25.25 -38 20 35.6          19.9 R EM047474
     K08M01G  C2008 06 29.42402 20 07 24.08 -38 20 40.2          19.1 R EM047474
     K08M01G  C2008 06 29.42703 20 07 22.91 -38 20 45.3          19.9 R EM047474
     K08M01G  C2008 06 29.47076 20 07 06.50 -38 21 56.4          19.5 R EM047E12
     K08M01G  C2008 06 29.81821 20 04 50.25 -38 30 56.8          19.4 R EM047E12
     K08M01G  C2008 06 30.46110 20 00 40.29 -38 47 10.9          19.4 R EM047474
     K08M01G  C2008 06 30.46238 20 00 39.82 -38 47 13.1          19.0 R EM047474
     K08M01G  C2008 06 30.46354 20 00 39.30 -38 47 14.9          19.1 R EM047474
     K08M01G  C2008 06 30.46470 20 00 38.82 -38 47 16.6          19.3 R EM047474

Observer details:
474 Mount John Observatory, Lake Tekapo.  Observer A. C. Gilmore.  Measurer
    P. M. Kilmartin.  1.0-m f/7.7 reflector + CCD.
E12 Siding Spring Survey.  Observer R. H. McNaught.  Measurers E. C. Beshore,
    A. Boattini, G. J. Garradd, A. R. Gibbs, A. D. Grauer, R. E. Hill,
    R. A. Kowalski, S. M. Larson, R. H. McNaught.  0.5-m Uppsala Schmidt + CCD.
F85 Tiki Observatory, Punaauia.  Observer N. Teamo.  0.41-m f/8.0
    Ritchey-Chretien + CCD.

Orbital elements:
2008 MG1                                                 Earth MOID = 0.0735 AU
Epoch 2008 May 14.0 TT = JDT 2454600.5                  MPC
M 123.81002              (2000.0)            P               Q
n   1.42158437     Peri.  108.76631     -0.19620021     -0.98047838
a   0.7833472      Node   352.51286     +0.85807826     -0.16528721
e   0.8210744      Incl.    5.70222     +0.47455999     -0.10650014
P   0.69           H   19.8           G   0.15           U   9
Residuals in seconds of arc
080627 E12  0.5+  0.1+    080628 F85  0.2+  0.5-    080629 E12  0.4+  0.2-
080627 E12  0.2+  0.6+    080628 E12  0.0   0.3+    080630 474  0.1-  0.2+
080627 E12  0.6-  0.9+    080628 E12  0.2-  0.1-    080630 474  0.4+  0.0
080627 E12  0.3-  1.2-    080629 474  0.0   0.0     080630 474  0.2-  0.1-
080628 E12  0.1+  0.3+    080629 474  0.1-  0.3+    080630 474  0.3-  0.0
080628 E12  0.1-  0.2-    080629 474  0.2-  0.0
080628 F85  0.2+  0.5-    080629 E12  0.0   0.1+

Ephemeris:
2008 MG1                 a,e,i = 0.78, 0.82, 6                   q = 0.1402
Date    TT    R. A. (2000) Decl.     Delta      r     Elong.  Phase     V
2008 06 23    20 42.87   -35 19.4    0.471    1.427   144.4    24.5    20.1
2008 07 03    19 43.11   -39 45.9    0.422    1.420   159.7    14.4    19.5
2008 07 13    18 24.81   -41 25.4    0.410    1.401   156.0    17.1    19.5
2008 07 23    17 13.23   -39 15.6    0.437    1.370   137.5    30.0    20.0
2008 08 02    16 25.05   -35 23.1    0.491    1.327   119.4    41.8    20.5
2008 08 12    15 57.54   -31 44.6    0.558    1.269   104.0    50.8    20.9
2008 08 22    15 43.06   -28 53.2    0.625    1.197    90.9    57.6    21.2
2008 09 01    15 35.94   -26 43.0    0.683    1.109    79.3    63.4    21.4
2008 09 11    15 32.34   -24 58.8    0.727    1.002    68.4    69.1    21.5

Timothy B. Spahr             (C) Copyright 2008 MPC           M.P.E.C. 2008-M47

Read MPEC 2008-M46 Read MPEC 2008-M48


Our Web policy. Index to the CBAT/MPC/ICQ pages.


Valid HTML 4.01!